RYR7QM LQBK-LOWW

Flight info

Callsign RYR7QM
Flight time N/A
Altitude 30000
Route TEBLI DCT OBUTI OBUTI2W
Aircraft A320/M-SDE3FGHIRWY/LB1

Departure

Time 2026-04-22 08:15
Airport Banja Luka International Airport (LQBK)

Arrival

Time N/A
Airport Vienna International Airport (LOWW)
Time Latitude Longitude Altitude Speed Heading
2026-04-22 08:00 44.93408 17.30256 401 ft 0 kts 154°
2026-04-22 08:11 44.93383 17.30246 403 ft 6 kts 239°
2026-04-22 08:11 44.93342 17.30211 403 ft 11 kts 174°
2026-04-22 08:11 44.93243 17.30233 404 ft 18 kts 187°
2026-04-22 08:11 44.93145 17.30152 406 ft 2 kts 212°
2026-04-22 08:12 44.93144 17.30151 406 ft 0 kts 212°
2026-04-22 08:12 44.93131 17.30140 405 ft 3 kts 213°
2026-04-22 08:13 44.93099 17.30109 404 ft 12 kts 217°
2026-04-22 08:13 44.93092 17.30025 406 ft 9 kts 342°
2026-04-22 08:13 44.93099 17.30022 408 ft 0 kts 347°
2026-04-22 08:14 44.93106 17.30020 409 ft 11 kts 346°
2026-04-22 08:14 44.93443 17.29932 401 ft 85 kts 349°
2026-04-22 08:14 44.94215 17.29731 395 ft 141 kts 351°
2026-04-22 08:14 44.95277 17.29471 743 ft 157 kts 350°
2026-04-22 08:15 44.96343 17.29194 1542 ft 155 kts 352°
2026-04-22 08:15 44.97417 17.28963 2281 ft 158 kts 347°
2026-04-22 08:15 44.98392 17.28212 2750 ft 168 kts 315°
2026-04-22 08:15 44.98997 17.26688 3139 ft 188 kts 282°
2026-04-22 08:16 44.98915 17.24805 3619 ft 201 kts 251°
2026-04-22 08:16 44.98482 17.22969 4360 ft 201 kts 260°
2026-04-22 08:16 44.98286 17.20956 4946 ft 215 kts 268°
2026-04-22 08:16 44.98178 17.18757 5532 ft 233 kts 269°
2026-04-22 08:17 44.98284 17.16420 6114 ft 246 kts 289°
2026-04-22 08:17 44.99083 17.14238 6724 ft 258 kts 307°
2026-04-22 08:17 45.00120 17.12097 7400 ft 268 kts 305°
2026-04-22 08:17 45.01147 17.09879 8248 ft 271 kts 304°
2026-04-22 08:18 45.02171 17.07624 9109 ft 275 kts 304°
2026-04-22 08:18 45.03206 17.05331 9953 ft 278 kts 304°
2026-04-22 08:18 45.04262 17.02985 10531 ft 290 kts 304°
2026-04-22 08:18 45.05368 17.00522 10923 ft 307 kts 303°
2026-04-22 08:19 45.06543 16.97913 11398 ft 318 kts 303°
2026-04-22 08:19 45.07737 16.95264 12125 ft 321 kts 303°
2026-04-22 08:19 45.08940 16.92595 12901 ft 323 kts 303°
2026-04-22 08:19 45.09742 16.90816 13432 ft 324 kts 303°
2026-04-22 08:20 45.10957 16.88117 14176 ft 326 kts 303°
2026-04-22 08:20 45.12176 16.85405 14841 ft 328 kts 303°
2026-04-22 08:20 45.13391 16.82647 15488 ft 330 kts 296°
2026-04-22 08:20 45.14443 16.79760 16113 ft 330 kts 293°
2026-04-22 08:21 45.15473 16.76855 16777 ft 330 kts 295°
2026-04-22 08:21 45.16612 16.74048 17465 ft 328 kts 298°
2026-04-22 08:21 45.17899 16.71391 18221 ft 325 kts 305°
2026-04-22 08:21 45.19554 16.69255 18960 ft 321 kts 320°
2026-04-22 08:22 45.21483 16.67723 19729 ft 315 kts 329°
2026-04-22 08:22 45.23490 16.66558 20569 ft 307 kts 334°
2026-04-22 08:22 45.25508 16.65733 21463 ft 295 kts 336°
2026-04-22 08:22 45.27415 16.64914 22414 ft 277 kts 332°
2026-04-22 08:23 45.29153 16.63947 23338 ft 259 kts 327°
2026-04-22 08:23 45.30731 16.62900 24107 ft 245 kts 334°
2026-04-22 08:23 45.31814 16.62450 24372 ft 246 kts 339°